Torna al catalogo

FENGYUN 2H AKM

AttivoGEO
NORAD 43497·ROCKET BODY·🇨🇳 China

Lanciato Jun 5, 2018 da Xichang Satellite Launch Center

Loading…

TLE

AggiornatoSource: Space-Track

Epoca: Sep 14, 2026, 00:05 UTC

1 43497U 18050C   26257.00401620 -.00000101  00000-0  00000-0 0  9999
2 43497   5.0896  75.3746 0087782 328.6343  31.1083  1.00050216 30194

Traccia FENGYUN 2H AKM in tempo reale con AllMySat

Download on the App Store